Other Public Products
Issued by NWS Grand Forks, ND

Home | Current Version | Previous Version | Graphics & Text | Print | Product List | Glossary On
Versions: 1 2 3 4 5 6 7 8 9 10 11 12 13 14 15 16 17 18 19 20 21 22 23 24 25 26 27 28 29 30 31 32 33 34 35 36 37 38 39 40 41 42 43 44 45 46 47 48 49 50
009
FPUS83 KFGF 251110
OPUFGF
PRAIRIE TO PINES WEATHER ROUNDUP
NATIONAL WEATHER SERVICE EASTERN NORTH DAKOTA/GRAND FORKS ND
500 AM CST SAT FEB 25 2017

 **SATELLITE DATA USED TO AUGMENT SKY COVER AT AUTOMATED STATIONS**
 *****  WEATHER ACROSS EASTERN NORTH DAKOTA  *****

CITY           SKY/WX    TMP DP  RH WIND       PRES   REMARKS
GRAND FORKS    CLOUDY    20  12  71 S9        29.96F WCI   9
GRAND FORKS AF CLOUDY    20  15  81 SW6       29.95F WCI  12
GRAND CITY NWS NOT AVBL
BUXTON         NOT AVBL
DEVILS LAKE    CLOUDY    20  16  84 SW10      29.91F WCI   9
FARGO          CLOUDY    17  14  88 S3        30.00F
WAHPETON ARPT    N/A     18  14  86 W6        30.02S WCI   9
$$

 *****  WEATHER ACROSS CENTRAL AND WESTERN NORTH DAKOTA  *****

CITY           SKY/WX    TMP DP  RH WIND       PRES   REMARKS
JAMESTOWN      MOCLDY    17  13  84 W7        29.95F WCI   8
BISMARCK       CLOUDY    19  15  84 CALM      29.96F
MINOT          MOCLDY    21  16  81 W9        29.90F WCI  11
MINOT AFB      MOCLDY    20  18  91 NW14      29.90F WCI   7
GARRISON         N/A     21  19  92 W6        29.91F WCI  13
WILLISTON      FAIR      19  17  92 CALM      29.94F
DICKINSON      MOCLDY    18  13  80 W7        29.88F WCI   9
HETTINGER      CLOUDY    19  15  84 W3        29.92F
$$

 *****  OTHER OBSERVATIONS NORTHEAST NORTH DAKOTA  *****

CITY           SKY/WX    TMP DP  RH WIND       PRES   REMARKS
WALHALLA       NOT AVBL
LANGDON        NOT AVBL
CAVALIER         N/A     18  16  93 S7        29.92F WCI   8
GRAFTON        CLOUDY    18  18 100 S6        29.97F WCI   9
CANDO          NOT AVBL
FORT TOTTEN      N/A     20  18  92 SW5       29.95S WCI  13
ROLLA          CLOUDY    18  18 100 W10       29.87F WCI   6
RUGBY            N/A     18  18 100 SW12      29.90F WCI   5
 ***** THE ABOVE OBSERVATIONS ARE NON NWS ARE NOT QUALITY
        CONTROLLED AND MAY MIS-REPORT RAIN FOR SNOW...
$$

 *****  OTHER OBSERVATIONS SOUTHEAST NORTH DAKOTA *****

CITY           SKY/WX    TMP DP  RH WIND       PRES   REMARKS
COOPERSTOWN    CLOUDY    19  18  93 SW9       29.95F WCI   9
VALLEY CITY    CLOUDY    16  16 100 W12       29.98F WCI   3
OAKES          NOT AVBL
GWINNER        FAIR      18  16  93 SW9       30.00F WCI   6
SHEYENNE NWR     N/A     10   6  84 W3        29.95S
BUFFALO        NOT AVBL
WYNDMERE       NOT AVBL
 ***** THE ABOVE OBSERVATIONS ARE NON NWS ARE NOT QUALITY
       CONTROLLED AND MAY MIS-REPORT RAIN FOR SNOW...
$$

  *****  WEATHER ACROSS NORTHERN MINNESOTA  *****

CITY           SKY/WX    TMP DP  RH WIND       PRES   REMARKS
FLAG ISLAND    FAIR       3   0  85 NW7       29.91F WCI  -9
WARROAD        FAIR       5   1  85 W6        29.94F WCI  -6
ROSEAU         FAIR       3   0  85 CALM      29.94F
HALLOCK        FLURRIES  16  12  86 S6        29.94F WCI   7
THF RVR FALLS  NOT AVBL
HALSTAD          N/A     18  14  85 SW6         N/A  WCI  10
FOSSTON        FAIR       7   3  85 W3        29.96F
BAUDETTE       FAIR       3  -2  79 W6        29.91F WCI  -8
WASKISH        FAIR       7   1  78 NW5       29.91F WCI  -2
CROOKSTON      CLOUDY    18  14  86 SW5       29.98F WCI  11
$$
  *****  WEATHER ACROSS CENTRAL AND WEST MINNESOTA  *****

CITY           SKY/WX    TMP DP  RH WIND       PRES   REMARKS
BEMIDJI        FAIR       5   1  82 W7        29.92F WCI  -7
PARK RAPIDS    FAIR       7  -1  70 NW8       29.92F WCI  -6
WADENA         FAIR      10   3  72 NW8       29.94S WCI  -1
DETROIT LAKES  FAIR      12  10  92 NW6       29.97S WCI   3
MOORHEAD       MOCLDY    16  12  86 CALM      30.01F
FERGUS FALLS   FAIR      12  10  92 NW5       30.05F WCI   4
ELBOW LAKE     FAIR      14  12  90 W10       30.00S WCI   1
MORRIS MN      FAIR      16  12  86 NW10      30.00S WCI   3
STAPLES        FAIR      10   3  72 NW12      29.93F WCI  -4
WHEATON        FAIR      16  10  79 W5        30.04F WCI   9
$$
  *****  WEATHER ELSEWHERE ACROSS MINNESOTA  *****

CITY           SKY/WX    TMP DP  RH WIND       PRES   REMARKS
DULUTH         FLURRIES   7   2  80 NW14      29.78S WCI -10
INTRNTL FALLS  FAIR       3  -2  79 NW8       29.87F WCI -10
ELY            CLOUDY     7   1  78 NW7G16    29.78S WCI  -5
CLOQUET        FAIR       7   1  78 NW16G24   29.81S WCI -11
BRAINERD       FAIR       9   1  70 NW13      29.92S WCI  -7
HIBBING        FAIR       5   0  79 NW15      29.83S WCI -13
ALEXANDRIA     FAIR      13   4  67 NW10      29.96S WCI   0
SAINT CLOUD    FAIR      13   3  64 NW13      29.93S WCI  -2
MINNEAPOLIS    FAIR      16   5  62 NW20      29.91R WCI  -1
$$

  *****  WEATHER ACROSS SOUTH DAKOTA  *****

CITY           SKY/WX    TMP DP  RH WIND       PRES   REMARKS
SIOUX FALLS    FAIR      13  12  96 W9        30.04S WCI   1
BROOKINGS      FAIR      13  11  92 NW5       30.01F WCI   5
WATERTOWN      FAIR      13  10  88 W6        29.99F WCI   4
HURON          CLOUDY    17  14  88 CALM      30.06F
SISSETON         N/A     16  11  80 W5        30.01F WCI   9
ABERDEEN       FAIR      12   8  84 SW5       30.03F WCI   4
MITCHELL       CLOUDY    18  14  84 W3        30.07F
PIERRE         CLOUDY    23  14  68 S8        30.02F WCI  14
MOBRIDGE       MOCLDY    23  15  71 S6        29.96F WCI  16
RAPID CITY     FAIR      13   7  77 W5        29.93F WCI   5
$$

  *****  SOME WEATHER IN NEARBY STATES *****

CITY           SKY/WX    TMP DP  RH WIND       PRES   REMARKS
GLASGOW MT     CLOUDY    19  17  92 CALM      29.96F
GREAT FALLS MT FAIR      18  13  80 SW12      29.93F WCI   5
CHEYENNE WY    FAIR      10   0  63 W7        29.89F WCI  -1
SCOTTSBLUFF NE FAIR      -3  -8  79 W7        29.97F WCI -16
OMAHA NE       FAIR      17  10  74 NW10      30.10R WCI   5
DES MOINES IA  MOCLDY    19  11  70 NW15      30.00R WCI   5
DAVENPORT IA   FLURRIES  21  16  81 NW17      29.84R WCI   7
CHICAGO IL     CLOUDY    27  19  72 NW13      29.67R WCI  16
EAU CLAIRE WI  FAIR      13   4  67 W15       29.80R WCI  -3
LA CROSSE WI   FAIR      19   8  62 NW17      29.82R WCI   4
$$

  *****  SOME NATIONAL WEATHER *****

CITY           SKY/WX    TMP DP  RH WIND       PRES   REMARKS
LA GUARDIA NY  FOG       52  50  93 S6        29.79F VSB 1/4
RALEIGH NC     FAIR      60  58  92 S7        29.77S
ATLANTA GA     MOCLDY    63  59  87 SW10      29.76S
NEW ORLEANS LA FAIR      63  42  46 N13G23    29.95R
OKLAHOMA CITY  FAIR      26  17  68 N10       30.19R WCI  16
ALBUQUERQUE NM FAIR      26   0  32 CALM      30.07F
SALT LAKE CITY MOCLDY    22  12  65 SE8       30.11F WCI  12
LOS ANGELES CA FAIR      45  39  79 E5        30.13F
BOISE ID       FAIR      23  15  71 SE7       30.14F WCI  15
SEATTLE WA     FAIR      35  27  72 SE5       30.25S
$$

*** WEATHER ACROSS MANITOBA...SASKATCHEWAN AND ONTARIO ***
                ***ONTARIO***

CITY           SKY/WX    TMP DP  RH WIND       PRES   REMARKS
GERALDTON      LGT SNOW   3   0  85 N10       29.63F DRFTSNOWWCI -12
THUNDER BAY    CLOUDY    12   5  73 NW10G21   29.70F WCI  -1
SIOUX LOOKOUT  FLURRIES   9   3  78 NW6       29.79F WCI  -1
TORONTO        FOG       39  39 100 SE5       29.43F VSB 1/4
BIG TROUT LK   CLEAR    -15 -20  76 NE5       29.85F WCI -27
PICKLE LAKE    CLEAR     -9 -13  84 NW6       29.76  WCI -23
DRYDEN         CLEAR      3   1  92 W7        29.81F WCI  -9
KENORA         CLEAR      1  -2  85 NW7       29.87F WCI -11
$$
                *** MANITOBA***

CITY           SKY/WX    TMP DP  RH WIND       PRES   REMARKS
BRANDON        FOG        9   7  92 NW8       29.88F VSB 1/2 WCI  -4
DAUPHIN        LGT SNOW  16  14  93 N5        29.90F WCI   9
ISLAND LAKE    CRYSTALS  -9 -13  84 CALM      29.89F
PILOT MOUND      N/A     14  12  92 SW5         N/A  WCI   6
THE PAS        FLURRIES   5   0  78 NW14G21   29.93F WCI -12
THOMPSON       CLEAR    -26 -33  68 CALM      29.89F
WINNIPEG       CLOUDY    12   9  85 S7        29.91F WCI   2
LYNN LAKE      FLURRIES -11 -15  84 W8        29.88F WCI -28
CHURCHILL      FLURRIES -11 -17  77 S7        29.95F WCI -26
GILLAM         CLEAR    -18 -24  76 NE2       29.91F
$$
                ***SASKATCHEWAN***

CITY           SKY/WX    TMP DP  RH WIND       PRES   REMARKS
ESTEVAN        LGT SNOW  18  16  93 W10       29.93F FOG     WCI   6
KINDERSLEY     MOCLDY     7   3  85 W2        29.98F
LLOYDMINSTER   MOCLDY     0  -4  85 SW8       29.96F WCI -15
PRINCE ALBERT  FLURRIES   3  -6  66 NW7       30.01F WCI  -9
REGINA         FLURRIES  14   9  79 N12       29.96F WCI   0
YORKTON        CLOUDY    10   5  79 NW15G22   29.93S WC



USA.gov is the U.S. government's official web portal to all federal, state and local government web resources and services.